DW9064 Weather Reports


Display with metric or nautical units.
time (UTC)temp
F
wind
direction
speed
MPH
gust
MPH
rain 1hr
in
rain 24hr
in
rain mn
in
humidity
%
barometer
mb
20260506062101 49 321 6.0 9.0 0.00 0.00 0.00 77 1026.9
20260506061201 49 318 8.0 9.0 0.00 0.00 0.00 77 1026.9
20260506060301 49 324 5.0 8.0 0.00 0.00 0.00 77 1026.7
20260506050901 51 318 7.0 9.0 0.00 0.00 0.00 69 1026.2
20260506045101 51 325 8.0 10.0 0.00 0.00 0.00 71 1025.9
20260506044201 51 314 7.0 9.0 0.00 0.00 0.00 71 1025.9
20260506043301 52 314 7.0 9.0 0.00 0.00 0.00 69 1025.7
20260506042401 52 318 8.0 9.0 0.00 0.00 0.00 68 1025.6
20260506041500 52 315 7.0 9.0 0.00 0.00 0.00 68 1025.5
20260506040600 53 316 8.0 10.0 0.00 0.00 0.00 65 1025.4
20260506035700 53 314 8.0 9.0 0.00 0.00 0.00 67 1025.2
20260506034800 54 318 8.0 11.0 0.00 0.00 0.00 65 1025.0
20260506033900 54 314 8.0 10.0 0.00 0.00 0.00 64 1025.0
20260506033000 55 314 8.0 11.0 0.00 0.00 0.00 63 1024.9
20260506031200 56 316 8.0 10.0 0.00 0.00 0.00 63 1024.7
20260506030301 57 316 8.0 10.0 0.00 0.00 0.00 60 1024.5
20260506024500 58 320 9.0 11.0 0.00 0.00 0.00 58 1024.2
20260506023600 58 315 8.0 11.0 0.00 0.00 0.00 57 1024.2
20260506022700 59 316 9.0 11.0 0.00 0.00 0.00 56 1024.2
20260506021800 60 315 9.0 11.0 0.00 0.00 0.00 54 1024.0
20260506015100 60 316 9.0 11.0 0.00 0.00 0.00 55 1024.0
20260506014200 61 318 9.0 11.0 0.00 0.00 0.00 53 1023.9
20260506013300 62 319 9.0 11.0 0.00 0.00 0.00 53 1023.9
20260506012400 62 318 9.0 10.0 0.00 0.00 0.00 52 1023.9
20260506011500 63 314 8.0 10.0 0.00 0.00 0.00 50 1023.9
20260506010600 64 316 8.0 10.0 0.00 0.00 0.00 45 1023.9
20260506005700 66 316 7.0 8.0 0.00 0.00 0.00 41 1024.1
20260506004800 70 314 6.0 8.0 0.00 0.00 0.00 35 1024.1
20260506003900 73 326 5.0 7.0 0.00 0.00 0.00 30 1024.0
20260506003000 77 334 4.0 6.0 0.00 0.00 0.00 25 1024.1
20260506002100 80 358 2.0 5.0 0.00 0.00 0.00 20 1024.2
20260506001200 81 359 2.0 4.0 0.00 0.00 0.00 15 1024.4
20260506000302 81 57 1.0 4.0 0.00 0.00 0.00 10 1024.4
20260505235400 80 115 2.0 4.0 0.00 0.00 0.00 10 1024.6
20260505234500 81 109 2.0 5.0 0.00 0.00 0.00 10 1024.6
20260505233600 81 130 1.0 4.0 0.00 0.00 0.00 10 1024.8
20260505232700 81 165 2.0 7.0 0.00 0.00 0.00 10 1024.9
20260505231800 81 122 2.0 6.0 0.00 0.00 0.00 10 1024.9
20260505230000 82 74 2.0 7.0 0.00 0.00 0.00 10 1025.1
20260505225100 81 72 3.0 7.0 0.00 0.00 0.00 10 1025.1
20260505224200 80 132 1.0 6.0 0.00 0.00 0.00 10 1025.4
20260505223300 80 148 4.0 7.0 0.00 0.00 0.00 10 1025.5
20260505221500 80 116 3.0 7.0 0.00 0.00 0.00 10 1025.6
20260505220600 79 163 2.0 6.0 0.00 0.00 0.00 11 1025.8
20260505215700 78 184 2.0 8.0 0.00 0.00 0.00 10 1025.9
20260505214800 78 181 4.0 10.0 0.00 0.00 0.00 10 1026.0
20260505213900 79 128 4.0 5.0 0.00 0.00 0.00 13 1026.2
20260505213000 78 183 2.0 8.0 0.00 0.00 0.00 11 1026.3
20260505212100 78 220 3.0 9.0 0.00 0.00 0.00 10 1026.5
20260505211200 78 194 5.0 12.0 0.00 0.00 0.00 12 1026.6
20260505210300 78 184 7.0 12.0 0.00 0.00 0.00 11 1026.8
20260505205400 78 129 1.0 8.0 0.00 0.00 0.00 11 1026.9
20260505203601 77 119 4.0 11.0 0.00 0.00 0.00 13 1027.2
20260505202700 78 140 4.0 8.0 0.00 0.00 0.00 13 1027.2
20260505201800 78 305 3.0 7.0 0.00 0.00 0.00 12 1027.2
20260505200000 77 98 2.0 8.0 0.00 0.00 0.00 17 1027.5
20260505195059 76 122 2.0 10.0 0.00 0.00 0.00 19 1027.6
20260505194200 77 68 2.0 8.0 0.00 0.00 0.00 14 1027.7
20260505193259 76 111 1.0 10.0 0.00 0.00 0.00 20 1027.6
20260505191500 75 119 2.0 8.0 0.00 0.00 0.00 18 1027.9
20260505184759 73 126 4.0 8.0 0.00 0.00 0.00 20 1028.3
20260505183859 73 116 3.0 8.0 0.00 0.00 0.00 20 1028.4
20260505182959 74 87 2.0 9.0 0.00 0.00 0.00 22 1028.4
20260505182059 74 80 3.0 6.0 0.00 0.00 0.00 20 1028.5
20260505181159 72 122 2.0 8.0 0.00 0.00 0.00 26 1028.6
20260505180259 71 132 4.0 8.0 0.00 0.00 0.00 25 1028.7
20260505175359 72 57 1.0 8.0 0.00 0.00 0.00 25 1028.9
20260505173559 70 72 4.0 9.0 0.00 0.00 0.00 29 1029.0
20260505172659 69 112 3.0 8.0 0.00 0.00 0.00 31 1029.0
20260505171759 68 95 4.0 8.0 0.00 0.00 0.00 32 1029.2
20260505165959 67 92 4.0 10.0 0.00 0.00 0.00 35 1029.4
20260505165059 66 59 4.0 8.0 0.00 0.00 0.00 38 1029.5
20260505164159 65 83 4.0 8.0 0.00 0.00 0.00 38 1029.5
20260505163259 64 46 2.0 9.0 0.00 0.00 0.00 40 1029.6
20260505162359 63 69 3.0 9.0 0.00 0.00 0.00 41 1029.6
20260505160559 62 64 4.0 10.0 0.00 0.00 0.00 43 1029.9
20260505152959 58 88 4.0 8.0 0.00 0.00 0.00 49 1030.1
20260505152059 58 80 3.0 8.0 0.00 0.00 0.00 52 1030.1
20260505151159 57 85 4.0 11.0 0.00 0.00 0.00 52 1030.1
20260505150259 56 74 2.0 8.0 0.00 0.00 0.00 54 1030.1
20260505124759 42 341 3.0 6.0 0.00 0.00 0.00 79 1028.7
20260505122959 43 353 4.0 6.0 0.00 0.00 0.00 79 1028.7
20260505121159 44 348 2.0 7.0 0.00 0.00 0.00 77 1028.4
20260505120259 44 348 4.0 7.0 0.00 0.00 0.00 77 1028.3
20260505115358 44 11 3.0 7.0 0.00 0.00 0.00 77 1028.4
20260505114459 44 7 3.0 8.0 0.00 0.00 0.00 76 1028.2
20260505113559 45 347 4.0 8.0 0.00 0.00 0.00 76 1028.2
20260505112659 45 344 4.0 6.0 0.00 0.00 0.00 75 1028.1
20260505111758 46 344 4.0 7.0 0.00 0.00 0.00 74 1028.0
20260505110859 47 351 4.0 7.0 0.00 0.00 0.00 73 1027.9
20260505095658 46 344 4.0 8.0 0.00 0.00 0.00 74 1027.1
20260505093858 47 344 5.0 8.0 0.00 0.00 0.00 73 1027.0
20260505092958 47 340 4.0 8.0 0.00 0.00 0.00 71 1027.0
20260505092058 48 351 5.0 8.0 0.00 0.00 0.00 72 1027.0
20260505091159 48 341 5.0 8.0 0.00 0.00 0.00 70 1026.8
20260505090258 49 29 2.0 9.0 0.00 0.00 0.00 69 1026.8
20260505085358 49 15 2.0 8.0 0.00 0.00 0.00 69 1026.6
20260505084458 49 358 2.0 8.0 0.00 0.00 0.00 70 1026.6
20260505083558 49 350 4.0 8.0 0.00 0.00 0.00 70 1026.4
20260505081758 49 342 5.0 8.0 0.00 0.00 0.00 71 1026.3
20260505080858 49 331 4.0 8.0 0.00 0.00 0.00 71 1026.2
20260505075958 49 330 5.0 8.0 0.00 0.00 0.00 71 1026.1
20260505075058 50 322 6.0 8.0 0.00 0.00 0.00 69 1026.0
20260505074158 51 329 4.0 8.0 0.00 0.00 0.00 69 1025.8
20260505072358 51 334 4.0 8.0 0.00 0.00 0.00 70 1025.7
20260505071458 51 325 5.0 8.0 0.00 0.00 0.00 69 1025.6
20260505065658 53 331 5.0 8.0 0.00 0.00 0.00 66 1025.5